Weather in Mezinets

Russia / Tambov Oblast     53°29′06″N   40°37′36″E
temp.,
°C
wind,
m/s
gust,
m/s
humid.,
%
clouds,
%
prec.,
mm/h
press.,
hPa
HPBL,
m
22 october, fri
fri2200:00+12sw91765100 0.0 1003753
03:00+10sw91770100 0.0 1001644
06:00+10sw91771100 0.0 1001659
09:00+10sw81573100 0.0 1001622
12:00+11sw81575100 0.0 1003778
15:00+13wsw9156598 0.0 10031374
18:00+12wsw815656 0.0 1006713
21:00+10wsw613690 0.0 1008569
23 october, sat
sat2300:00+8sw512770 0.0 1008425
03:00+7sw613775 0.0 1009471
06:00+6sw613730 0.0 1009410
09:00+7sw612715 0.0 1010532
12:00+11sw814442 0.0 10091592
15:00+12wsw7124518 0.0 10081652
18:00+9wsw6125893 0.0 1010657
21:00+7w712605 0.0 1011714
24 october, sun
sun2400:00+5wsw612795 0.0 1012584
03:00+4wsw612805 0.0 1013566
06:00+4wsw697662 0.0 1013675
09:00+4wsw7137794 0.0 1013770
12:00+6w81075100 0.2 10131061
15:00+5w6877100 0.4 1014817
18:00+3wnw5896100 0.1 1015474
21:00+1nw5895100 0.3 1016480
25 october, mon
mon2500:00+2nnw688274 0.4 1017754
03:00+1nnw7118899 0.4 1019734
06:000nnw7128483 0.1 1022826
09:00+1nnw7107598 0.1 1024997
12:00+2n796294 0.0 10261091
15:00+3n79495 0.0 10281159
18:00+1nnw4962100 0.0 1030335
21:000nw35735 0.0 1031106
26 october, tue
tue2600:00−1wnw34755 0.0 103286
03:00−1w3773100 0.0 1032160
06:00−1wsw49735 0.0 1031229
09:00+1wsw511625 0.0 1030380
12:00+5wsw6104299 0.0 1029636
15:00+5wsw6114221 0.0 1027698
18:00+3sw613527 0.0 1026401
21:00+2sw61455100 0.0 1025394